Flag for Austria Weather past 2 weeks in Traun, Upper Austria, Austria

Now
30 °F

Clear.


Feels Like: 30 °F
Forecast: 34 / 44 °F
Wind: 2 mph from North

Location: Linz / Hoersching-Flughafen

Current Time: Mar 4, 2015 at 3:59:05 AM

Latest Report: Mar 4, 2015 at 3:20 AM


Visibility: 10 mi

Pressure: 30.12 "Hg

Humidity: 86%

Dew point: 27 °F

Location of TraunLocation

Historic Weather in Traun — Graph

°F

Traun temperature yesterday

Maximum temperature yesterday: 48 °F (at 2:20 PM)
Minimum temperature yesterday: 30 °F (at 11:20 PM)
Average temperature yesterday: 39 °F

Past Weeks' High & Low Weather Summary

 TemperatureHumidityPressure
High48 °F (Mar 3, 2:20 PM)100% (Feb 17, 11:20 PM)30.74 "Hg (Feb 17, 11:20 PM)
Low23 °F (Feb 20, 4:50 AM)40% (Mar 3, 4:20 PM)29.50 "Hg (Feb 21, 4:20 PM)
Average36 °F83%30.03 "Hg
* Reported Feb 17 2:20 AM — Mar 4 2:20 AM, Traun, Weather by CustomWeather, © 2015

Note: Actual official high and low records may vary slightly from our data, if they occured in-between our weather recording intervals... More about our weather records

Advertising

Traun weather history for previous 24 hours

 ConditionsComfort  
Time TempWeatherWind HumidityBarometerVisibility
2:20 AM
Wed, Mar 4
30 °FPassing clouds.1 mph86%30.12 "HgN/A
1:50 AM30 °FPassing clouds.1 mph93%30.12 "HgN/A
1:20 AM30 °FPassing clouds.1 mph93%30.12 "HgN/A
12:50 AM30 °FPassing clouds.1 mph86%30.12 "HgN/A
12:20 AM30 °FPassing clouds.2 mph86%30.15 "HgN/A
11:50 PM
Tue, Mar 3
30 °FPassing clouds.1 mph86%30.15 "HgN/A
11:20 PM30 °FPassing clouds.1 mph86%30.15 "HgN/A
10:50 PM32 °FClear.1 mph80%30.15 "Hg10 mi
10:20 PM34 °FPassing clouds.3 mph75%30.15 "HgN/A
9:50 PM36 °FClear.5 mph70%30.15 "Hg10 mi
9:20 PM34 °FPassing clouds.3 mph75%30.15 "HgN/A
8:50 PM34 °FClear.3 mph75%30.15 "Hg10 mi
8:20 PM36 °FClear.2 mph70%30.15 "Hg10 mi
7:50 PM37 °FClear.2 mph65%30.18 "Hg10 mi
7:20 PM39 °FPassing clouds.3 mph56%30.18 "HgN/A
6:50 PM41 °FPassing clouds.5 mph53%30.18 "HgN/A
6:20 PM43 °FPassing clouds.2 mph49%30.18 "HgN/A
5:50 PM43 °FPassing clouds.6 mph49%30.18 "HgN/A
5:20 PM45 °FPassing clouds.9 mph49%30.18 "HgN/A
4:50 PM46 °FPassing clouds.12 mph43%30.18 "HgN/A
4:20 PM46 °FPassing clouds.16 mph40%30.18 "HgN/A
3:50 PM48 °FScattered clouds.18 mph43%30.18 "HgN/A
3:20 PM48 °FScattered clouds.14 mph46%30.18 "HgN/A
2:50 PM46 °FScattered clouds.16 mph46%30.18 "HgN/A
2:20 PM48 °FScattered clouds.14 mph46%30.21 "HgN/A
1:50 PM46 °FPartly sunny.15 mph46%30.21 "HgN/A
1:20 PM45 °FPartly sunny.20 mph53%30.21 "HgN/A
12:50 PM46 °FBroken clouds.18 mph50%30.21 "HgN/A
12:20 PM46 °FPartly sunny.22 mph53%30.21 "HgN/A
11:50 AM45 °FPartly sunny.17 mph57%30.21 "HgN/A
11:20 AM43 °FPartly sunny.17 mph57%30.24 "HgN/A
10:50 AM43 °FPartly sunny.18 mph57%30.21 "HgN/A
10:20 AM41 °FScattered clouds.21 mph61%30.21 "HgN/A
9:50 AM41 °FPassing clouds.20 mph61%30.21 "HgN/A
9:20 AM41 °FPassing clouds.15 mph61%30.21 "HgN/A
8:50 AM39 °FPassing clouds.12 mph65%30.21 "HgN/A
8:20 AM37 °FPassing clouds.12 mph70%30.21 "HgN/A
7:50 AM36 °FPassing clouds.12 mph75%30.21 "HgN/A
7:20 AM36 °FPassing clouds.12 mph75%30.18 "HgN/A
6:50 AM34 °FPassing clouds.12 mph81%30.18 "HgN/A
6:20 AM36 °FPassing clouds.13 mph75%30.15 "HgN/A
5:50 AM36 °FPassing clouds.13 mph75%30.15 "HgN/A
5:20 AM36 °FPassing clouds.15 mph75%30.15 "HgN/A
4:50 AM37 °FPartly cloudy.21 mph70%30.15 "HgN/A
4:20 AM37 °FPartly cloudy.21 mph70%30.12 "HgN/A
3:50 AM36 °FPartly cloudy.14 mph81%30.12 "HgN/A
3:20 AM36 °FPassing clouds.12 mph81%30.12 "HgN/A
Weather by CustomWeather, © 2015

See weather overviewHow to use our weather pages